Flag for Norway Weather past 2 weeks in Kirkenes, Norway

Now
49 °F

Cool.


Feels Like: 46 °F
Forecast: 38 / 50 °F
Wind: 7 mph from North

Location: Kirkenes Lufthavn

Current Time: Jul 6, 2015 at 3:49:57 PM

Latest Report: Jul 6, 2015 at 3:00 PM


Visibility: N/A

Pressure: 29.99 "Hg

Humidity: 59%

Dew point: 35 °F

Location of KirkenesLocation

Historic Weather in Kirkenes — Graph

°F

Kirkenes temperature yesterday

Maximum temperature yesterday: 49 °F (at 1:00 PM)
Minimum temperature yesterday: 41 °F (at 2:00 AM)
Average temperature yesterday: 44 °F

Past Weeks' High & Low Weather Summary

 TemperatureHumidityPressure
High72 °F (Jun 23, 2:00 PM)98% (Jun 25, 2:00 PM)30.29 "Hg (Jun 25, 2:00 PM)
Low41 °F (Jul 5, 2:00 AM)29% (Jun 23, 3:00 PM)29.60 "Hg (Jun 25, 8:00 PM)
Average49 °F77%29.95 "Hg
* Reported Jun 21 2:00 PM — Jul 6 2:00 PM, Kirkenes, Weather by CustomWeather, © 2015

Note: Actual official high and low records may vary slightly from our data, if they occured in-between our weather recording intervals... More about our weather records

Advertising

Kirkenes weather history for previous 24 hours

 ConditionsComfort  
Time TempWeatherWind HumidityBarometerVisibility
2:00 PM
Mon, Jul 6
48 °FCool.6 mph56%30.01 "HgN/A
1:00 PM48 °FCool.7 mph56%30.02 "HgN/A
12:00 PM47 °FCool.7 mph55%30.03 "HgN/A
11:00 AM47 °FCool.7 mph61%30.04 "HgN/A
10:00 AM47 °FCool.6 mph61%30.06 "HgN/A
9:00 AM46 °FCool.8 mph62%30.07 "HgN/A
8:00 AM44 °FQuite cool.6 mph67%30.09 "HgN/A
7:00 AM43 °FQuite cool.6 mph69%30.09 "HgN/A
6:00 AM43 °FQuite cool.7 mph70%30.11 "HgN/A
4:00 AM42 °FQuite cool.6 mph80%30.12 "HgN/A
3:00 AM41 °FQuite cool.3 mph83%30.13 "HgN/A
2:00 AM42 °FQuite cool.3 mph80%30.13 "HgN/A
1:00 AM42 °FQuite cool.5 mph83%30.14 "HgN/A
12:00 AM42 °FQuite cool.3 mph82%30.14 "HgN/A
11:00 PM
Sun, Jul 5
42 °FQuite cool.5 mph82%30.13 "HgN/A
10:00 PM43 °FQuite cool.2 mph84%30.14 "HgN/A
9:00 PM43 °FQuite cool.3 mph83%30.13 "HgN/A
8:00 PM42 °FQuite cool.2 mph86%30.14 "HgN/A
7:00 PM44 °FQuite cool.6 mph81%30.14 "HgN/A
6:00 PM44 °FQuite cool.3 mph83%30.14 "HgN/A
5:00 PM45 °FCool.6 mph73%30.13 "HgN/A
4:00 PM46 °FCool.7 mph68%30.13 "HgN/A
3:00 PM48 °FCool.6 mph64%30.12 "HgN/A
Weather by CustomWeather, © 2015

See weather overviewHow to use our weather pages